Time,TemperatureF,DewpointF,PressureIn,WindDirection,WindDirectionDegrees,WindSpeedMPH,WindSpeedGustMPH,Humidity,HourlyPrecipIn,Conditions,Clouds,dailyrainin,SoftwareType,DateUTC
2013-08-17 00:01:00,58.8,49.1,31.87,WNW,285,0.0,0.0,70,0.00,,,0.00,VWS V14.01,2013-08-17 04:01:00,
2013-08-17 00:02:00,58.8,49.1,31.87,WNW,285,0.0,0.0,70,0.00,,,0.00,VWS V14.01,2013-08-17 04:02:00,
2013-08-17 00:06:00,58.8,49.1,31.87,WNW,285,0.0,0.0,70,0.00,,,0.00,VWS V14.01,2013-08-17 04:06:00,
2013-08-17 00:11:00,58.8,49.1,31.87,WNW,285,0.0,0.0,70,0.00,,,0.00,VWS V14.01,2013-08-17 04:11:00,
2013-08-17 00:13:00,58.8,49.1,31.87,WNW,285,0.0,0.0,70,0.00,,,0.00,VWS V14.01,2013-08-17 04:13:00,
2013-08-17 00:18:00,58.8,49.5,31.87,WNW,285,0.0,0.0,71,0.00,,,0.00,VWS V14.01,2013-08-17 04:18:00,
2013-08-17 00:23:00,58.6,49.3,31.87,WNW,285,0.0,0.0,71,0.00,,,0.00,VWS V14.01,2013-08-17 04:23:00,
2013-08-17 00:28:00,58.5,49.5,31.87,WNW,285,0.0,0.0,72,0.00,,,0.00,VWS V14.01,2013-08-17 04:28:00,
2013-08-17 00:33:00,58.5,49.5,31.87,WNW,285,0.0,0.0,72,0.00,,,0.00,VWS V14.01,2013-08-17 04:33:00,
2013-08-17 00:38:00,58.5,49.5,31.87,WNW,285,0.0,0.0,72,0.00,,,0.00,VWS V14.01,2013-08-17 04:38:00,
2013-08-17 00:43:00,58.5,49.5,31.87,WNW,285,0.0,0.0,72,0.00,,,0.00,VWS V14.01,2013-08-17 04:43:00,
2013-08-17 00:49:00,58.5,49.5,31.87,WNW,285,0.0,0.0,72,0.00,,,0.00,VWS V14.01,2013-08-17 04:49:00,
2013-08-17 00:56:00,58.1,49.1,31.87,WNW,285,0.0,0.0,72,0.00,,,0.00,VWS V14.01,2013-08-17 04:56:00,
2013-08-17 01:02:00,57.9,49.0,31.87,WNW,285,0.0,0.0,72,0.00,,,0.00,VWS V14.01,2013-08-17 05:02:00,
2013-08-17 01:07:00,57.9,49.3,31.87,WNW,285,0.0,0.0,73,0.00,,,0.00,VWS V14.01,2013-08-17 05:07:00,
2013-08-17 01:13:00,57.7,49.2,31.87,WNW,285,0.0,0.0,73,0.00,,,0.00,VWS V14.01,2013-08-17 05:13:00,
2013-08-17 01:18:00,57.7,49.2,31.87,WNW,285,0.0,0.0,73,0.00,,,0.00,VWS V14.01,2013-08-17 05:18:00,
2013-08-17 01:24:00,57.6,49.0,31.87,WNW,285,0.0,0.0,73,0.00,,,0.00,VWS V14.01,2013-08-17 05:24:00,
2013-08-17 01:29:00,57.4,48.8,31.87,WNW,285,0.0,0.0,73,0.00,,,0.00,VWS V14.01,2013-08-17 05:29:00,
2013-08-17 01:34:00,57.4,48.8,31.87,WNW,285,0.0,0.0,73,0.00,,,0.00,VWS V14.01,2013-08-17 05:34:00,
2013-08-17 01:39:00,57.2,48.6,31.87,WNW,285,0.0,0.0,73,0.00,,,0.00,VWS V14.01,2013-08-17 05:39:00,
2013-08-17 01:45:00,57.0,48.8,31.87,WNW,285,0.0,0.0,74,0.00,,,0.00,VWS V14.01,2013-08-17 05:45:00,
2013-08-17 01:51:00,56.8,48.7,31.87,WNW,285,0.0,0.0,74,0.00,,,0.00,VWS V14.01,2013-08-17 05:51:00,
2013-08-17 01:57:00,56.8,48.7,31.87,WNW,285,0.0,0.0,74,0.00,,,0.00,VWS V14.01,2013-08-17 05:57:00,
2013-08-17 02:02:00,57.2,49.0,31.87,WNW,285,0.0,0.0,74,0.00,,,0.00,VWS V14.01,2013-08-17 06:02:00,
2013-08-17 02:08:00,57.2,49.0,31.87,WNW,285,0.0,0.0,74,0.00,,,0.00,VWS V14.01,2013-08-17 06:08:00,
2013-08-17 02:13:00,57.2,49.4,31.87,WNW,285,0.0,0.0,75,0.00,,,0.00,VWS V14.01,2013-08-17 06:13:00,
2013-08-17 02:18:00,57.2,49.4,31.87,WNW,285,0.0,0.0,75,0.00,,,0.00,VWS V14.01,2013-08-17 06:18:00,
2013-08-17 02:23:00,57.2,49.7,31.87,WNW,285,0.0,0.0,76,0.00,,,0.00,VWS V14.01,2013-08-17 06:23:00,
2013-08-17 02:29:00,57.2,49.7,31.87,WNW,285,0.0,0.0,76,0.00,,,0.00,VWS V14.01,2013-08-17 06:29:00,
2013-08-17 02:34:00,57.2,50.1,31.87,ESE,118,0.0,0.0,77,0.00,,,0.00,VWS V14.01,2013-08-17 06:34:00,
2013-08-17 02:41:00,57.4,50.6,31.87,ESE,106,0.0,0.0,78,0.00,,,0.00,VWS V14.01,2013-08-17 06:41:00,
2013-08-17 02:46:00,57.4,50.6,31.87,ESE,106,0.0,0.0,78,0.00,,,0.00,VWS V14.01,2013-08-17 06:46:00,
2013-08-17 02:51:00,56.8,50.4,31.87,ESE,106,0.0,0.0,79,0.00,,,0.00,VWS V14.01,2013-08-17 06:51:00,
2013-08-17 02:57:00,56.3,49.5,31.87,ESE,106,0.0,0.0,78,0.00,,,0.00,VWS V14.01,2013-08-17 06:57:00,
2013-08-17 03:02:00,56.3,49.5,31.87,ESE,106,0.0,0.0,78,0.00,,,0.00,VWS V14.01,2013-08-17 07:02:00,
2013-08-17 03:07:00,56.5,49.7,31.87,ESE,106,0.0,0.0,78,0.00,,,0.00,VWS V14.01,2013-08-17 07:07:00,
2013-08-17 03:12:00,56.7,50.2,31.87,ESE,106,0.0,0.0,79,0.00,,,0.00,VWS V14.01,2013-08-17 07:12:00,
2013-08-17 03:18:00,56.7,50.2,31.87,ESE,106,0.0,0.0,79,0.00,,,0.00,VWS V14.01,2013-08-17 07:18:00,
2013-08-17 03:24:00,56.7,50.2,31.87,ESE,106,0.0,0.0,79,0.00,,,0.00,VWS V14.01,2013-08-17 07:24:00,
2013-08-17 03:30:00,56.7,50.2,31.87,ESE,106,0.0,0.0,79,0.00,,,0.00,VWS V14.01,2013-08-17 07:30:00,
2013-08-17 03:36:00,56.7,50.2,31.87,ESE,106,0.0,0.0,79,0.00,,,0.00,VWS V14.01,2013-08-17 07:36:00,
2013-08-17 03:41:00,56.7,50.2,31.87,ESE,106,0.0,0.0,79,0.00,,,0.00,VWS V14.01,2013-08-17 07:41:00,
2013-08-17 03:46:00,56.7,50.2,31.87,ESE,106,0.0,0.0,79,0.00,,,0.00,VWS V14.01,2013-08-17 07:46:00,
2013-08-17 03:51:00,56.7,50.2,31.87,ESE,106,0.0,0.0,79,0.00,,,0.00,VWS V14.01,2013-08-17 07:51:00,
2013-08-17 03:56:00,56.7,50.2,31.87,ESE,106,0.0,0.0,79,0.00,,,0.00,VWS V14.01,2013-08-17 07:56:00,
2013-08-17 04:02:00,56.7,50.2,31.87,ESE,106,0.0,0.0,79,0.00,,,0.00,VWS V14.01,2013-08-17 08:02:00,
2013-08-17 04:07:00,56.7,50.2,31.87,ESE,106,0.0,0.0,79,0.00,,,0.00,VWS V14.01,2013-08-17 08:07:00,
2013-08-17 04:12:00,56.7,50.2,31.87,ESE,106,0.0,0.0,79,0.00,,,0.00,VWS V14.01,2013-08-17 08:12:00,
2013-08-17 04:17:00,56.7,50.2,31.87,ESE,106,0.0,0.0,79,0.00,,,0.00,VWS V14.01,2013-08-17 08:17:00,
2013-08-17 04:23:00,56.7,50.2,31.87,ESE,106,0.0,0.0,79,0.00,,,0.00,VWS V14.01,2013-08-17 08:23:00,
2013-08-17 04:29:00,56.7,50.2,31.87,ESE,106,0.0,0.0,79,0.00,,,0.00,VWS V14.01,2013-08-17 08:29:00,
2013-08-17 04:34:00,56.7,50.2,31.87,ESE,106,0.0,0.0,79,0.00,,,0.00,VWS V14.01,2013-08-17 08:34:00,
2013-08-17 04:40:00,56.7,50.2,31.87,ESE,106,0.0,0.0,79,0.00,,,0.00,VWS V14.01,2013-08-17 08:40:00,
2013-08-17 04:46:00,56.7,50.2,31.87,ESE,106,0.0,0.0,79,0.00,,,0.00,VWS V14.01,2013-08-17 08:46:00,
2013-08-17 04:51:00,56.7,50.2,31.87,ESE,106,0.0,0.0,79,0.00,,,0.00,VWS V14.01,2013-08-17 08:51:00,
2013-08-17 04:56:00,56.7,50.2,31.87,ESE,106,0.0,0.0,79,0.00,,,0.00,VWS V14.01,2013-08-17 08:56:00,
2013-08-17 05:01:00,56.7,50.2,31.87,ESE,106,0.0,0.0,79,0.00,,,0.00,VWS V14.01,2013-08-17 09:01:00,
2013-08-17 05:06:00,56.7,50.2,31.87,ESE,106,0.0,0.0,79,0.00,,,0.00,VWS V14.01,2013-08-17 09:06:00,
2013-08-17 05:11:00,56.7,50.2,31.87,ESE,106,0.0,0.0,79,0.00,,,0.00,VWS V14.01,2013-08-17 09:11:00,
2013-08-17 05:16:00,56.7,50.2,31.87,ESE,106,0.0,0.0,79,0.00,,,0.00,VWS V14.01,2013-08-17 09:16:00,
2013-08-17 05:22:00,56.7,50.2,31.87,ESE,106,0.0,0.0,79,0.00,,,0.00,VWS V14.01,2013-08-17 09:22:00,
2013-08-17 05:27:00,56.7,50.2,31.87,ESE,106,0.0,0.0,79,0.00,,,0.00,VWS V14.01,2013-08-17 09:27:00,
2013-08-17 05:32:00,56.7,50.2,31.87,ESE,106,0.0,0.0,79,0.00,,,0.00,VWS V14.01,2013-08-17 09:32:00,
2013-08-17 05:37:00,56.7,50.2,31.87,ESE,106,0.0,0.0,79,0.00,,,0.00,VWS V14.01,2013-08-17 09:37:00,
2013-08-17 05:43:00,56.7,50.2,31.87,ESE,106,0.0,0.0,79,0.00,,,0.00,VWS V14.01,2013-08-17 09:43:00,
2013-08-17 05:48:00,56.7,50.2,31.87,ESE,106,0.0,0.0,79,0.00,,,0.00,VWS V14.01,2013-08-17 09:48:00,
2013-08-17 05:53:00,56.7,50.2,31.87,ESE,106,0.0,0.0,79,0.00,,,0.00,VWS V14.01,2013-08-17 09:53:00,
2013-08-17 05:58:00,56.7,50.2,31.87,ESE,106,0.0,0.0,79,0.00,,,0.00,VWS V14.01,2013-08-17 09:58:00,
2013-08-17 06:03:00,56.7,50.2,31.87,ESE,106,0.0,0.0,79,0.00,,,0.00,VWS V14.01,2013-08-17 10:03:00,
2013-08-17 06:08:00,56.7,50.2,31.87,ESE,106,0.0,0.0,79,0.00,,,0.00,VWS V14.01,2013-08-17 10:08:00,
2013-08-17 06:13:00,56.7,50.2,31.87,ESE,106,0.0,0.0,79,0.00,,,0.00,VWS V14.01,2013-08-17 10:13:00,
2013-08-17 06:18:00,56.7,50.2,31.87,ESE,106,0.0,0.0,79,0.00,,,0.00,VWS V14.01,2013-08-17 10:18:00,
2013-08-17 06:24:00,56.7,50.2,31.87,ESE,106,0.0,0.0,79,0.00,,,0.00,VWS V14.01,2013-08-17 10:24:00,
2013-08-17 06:29:00,56.7,50.2,31.87,ESE,106,0.0,0.0,79,0.00,,,0.00,VWS V14.01,2013-08-17 10:29:00,
2013-08-17 06:34:00,56.7,50.2,31.87,ESE,106,0.0,0.0,79,0.00,,,0.00,VWS V14.01,2013-08-17 10:34:00,
2013-08-17 06:39:00,56.7,50.2,31.87,ESE,106,0.0,0.0,79,0.00,,,0.00,VWS V14.01,2013-08-17 10:39:00,
2013-08-17 06:44:00,56.7,50.2,31.87,ESE,106,0.0,0.0,79,0.00,,,0.00,VWS V14.01,2013-08-17 10:44:00,
2013-08-17 06:49:00,56.7,50.2,31.87,ESE,106,0.0,0.0,79,0.00,,,0.00,VWS V14.01,2013-08-17 10:49:00,
2013-08-17 06:54:00,56.7,50.2,31.87,ESE,106,0.0,0.0,79,0.00,,,0.00,VWS V14.01,2013-08-17 10:54:00,
2013-08-17 07:01:00,56.7,50.2,31.87,ESE,106,0.0,0.0,79,0.00,,,0.00,VWS V14.01,2013-08-17 11:01:00,
2013-08-17 07:06:00,56.7,50.2,31.87,ESE,106,0.0,0.0,79,0.00,,,0.00,VWS V14.01,2013-08-17 11:06:00,
2013-08-17 07:11:00,56.7,50.2,31.87,ESE,106,0.0,0.0,79,0.00,,,0.00,VWS V14.01,2013-08-17 11:11:00,
2013-08-17 07:16:00,56.7,50.2,31.87,ESE,106,0.0,0.0,79,0.00,,,0.00,VWS V14.01,2013-08-17 11:16:00,
2013-08-17 07:21:00,56.7,50.2,31.87,ESE,106,0.0,0.0,79,0.00,,,0.00,VWS V14.01,2013-08-17 11:21:00,
2013-08-17 07:26:00,56.7,50.2,31.87,ESE,106,0.0,0.0,79,0.00,,,0.00,VWS V14.01,2013-08-17 11:26:00,
2013-08-17 07:31:00,54.1,48.8,31.87,ESE,106,0.0,0.0,82,0.00,,,0.00,VWS V14.01,2013-08-17 11:31:00,
2013-08-17 07:37:00,54.5,49.1,31.87,ESE,106,0.0,0.0,82,0.00,,,0.00,VWS V14.01,2013-08-17 11:37:00,
2013-08-17 07:42:00,55.2,50.2,31.87,ESE,106,0.0,0.0,83,0.00,,,0.00,VWS V14.01,2013-08-17 11:42:00,
2013-08-17 07:47:00,55.2,50.2,31.87,ESE,106,0.0,0.0,83,0.00,,,0.00,VWS V14.01,2013-08-17 11:47:00,
2013-08-17 07:52:00,55.2,50.2,31.87,ESE,106,0.0,0.0,83,0.00,,,0.00,VWS V14.01,2013-08-17 11:52:00,
2013-08-17 07:58:00,55.9,51.2,31.87,ESE,106,0.0,0.0,84,0.00,,,0.00,VWS V14.01,2013-08-17 11:58:00,
2013-08-17 08:03:00,55.9,51.2,31.87,ESE,106,0.0,0.0,84,0.00,,,0.00,VWS V14.01,2013-08-17 12:03:00,
2013-08-17 08:06:00,55.9,51.2,31.87,ESE,106,0.0,0.0,84,0.00,,,0.00,VWS V14.01,2013-08-17 12:06:00,
2013-08-17 08:12:00,55.9,51.2,31.87,ESE,106,0.0,0.0,84,0.00,,,0.00,VWS V14.01,2013-08-17 12:12:00,
2013-08-17 08:17:00,55.9,51.2,31.87,ESE,106,0.0,0.0,84,0.00,,,0.00,VWS V14.01,2013-08-17 12:17:00,
2013-08-17 08:22:00,55.9,51.2,31.87,ESE,106,0.0,0.0,84,0.00,,,0.00,VWS V14.01,2013-08-17 12:22:00,
2013-08-17 08:28:00,55.9,51.2,31.87,ESE,106,0.0,0.0,84,0.00,,,0.00,VWS V14.01,2013-08-17 12:28:00,
2013-08-17 08:34:00,55.9,51.2,31.87,ESE,106,0.0,0.0,84,0.00,,,0.00,VWS V14.01,2013-08-17 12:34:00,
2013-08-17 08:41:00,55.9,51.2,31.87,ESE,106,0.0,0.0,84,0.00,,,0.00,VWS V14.01,2013-08-17 12:41:00,
2013-08-17 08:46:00,55.9,51.2,31.87,ESE,106,0.0,0.0,84,0.00,,,0.00,VWS V14.01,2013-08-17 12:46:00,
2013-08-17 08:52:00,55.9,51.2,31.87,ESE,106,0.0,0.0,84,0.00,,,0.00,VWS V14.01,2013-08-17 12:52:00,
2013-08-17 08:57:00,55.9,51.2,31.87,ESE,106,0.0,0.0,84,0.00,,,0.00,VWS V14.01,2013-08-17 12:57:00,
2013-08-17 09:03:00,55.9,51.2,31.87,ESE,106,0.0,0.0,84,0.00,,,0.00,VWS V14.01,2013-08-17 13:03:00,
2013-08-17 09:09:00,55.9,51.2,31.87,ESE,106,0.0,0.0,84,0.00,,,0.00,VWS V14.01,2013-08-17 13:09:00,
2013-08-17 09:14:00,55.9,51.2,31.87,ESE,106,0.0,0.0,84,0.00,,,0.00,VWS V14.01,2013-08-17 13:14:00,
2013-08-17 09:21:00,55.9,51.2,31.87,ESE,106,0.0,0.0,84,0.00,,,0.00,VWS V14.01,2013-08-17 13:21:00,
2013-08-17 09:26:00,55.9,51.2,31.87,ESE,106,0.0,0.0,84,0.00,,,0.00,VWS V14.01,2013-08-17 13:26:00,
2013-08-17 09:31:00,55.9,51.2,31.87,ESE,106,0.0,0.0,84,0.00,,,0.00,VWS V14.01,2013-08-17 13:31:00,
2013-08-17 09:36:00,55.9,51.2,31.87,ESE,106,0.0,0.0,84,0.00,,,0.00,VWS V14.01,2013-08-17 13:36:00,
2013-08-17 09:41:00,55.9,51.2,31.87,NNE,27,0.0,0.0,84,0.00,,,0.00,VWS V14.01,2013-08-17 13:41:00,
2013-08-17 09:46:00,62.6,57.4,31.87,NNE,27,0.0,0.0,83,0.00,,,0.00,VWS V14.01,2013-08-17 13:46:00,
2013-08-17 09:52:00,63.1,57.9,31.87,NNE,27,0.0,0.0,83,0.00,,,0.00,VWS V14.01,2013-08-17 13:52:00,
2013-08-17 09:58:00,63.1,57.9,31.87,NNE,27,0.0,0.0,83,0.00,,,0.00,VWS V14.01,2013-08-17 13:58:00,
2013-08-17 10:03:00,63.1,57.9,31.87,NNE,27,0.0,0.0,83,0.00,,,0.00,VWS V14.01,2013-08-17 14:03:00,
2013-08-17 10:09:00,64.2,58.3,31.87,NNE,27,0.0,0.0,81,0.00,,,0.00,VWS V14.01,2013-08-17 14:09:00,
2013-08-17 10:15:00,65.3,58.6,31.87,NE,34,0.0,0.0,79,0.00,,,0.00,VWS V14.01,2013-08-17 14:15:00,
2013-08-17 10:20:00,66.0,59.0,31.87,ESE,119,0.0,0.0,78,0.00,,,0.00,VWS V14.01,2013-08-17 14:20:00,
2013-08-17 10:26:00,66.2,58.4,31.87,ESE,119,0.0,0.0,76,0.00,,,0.00,VWS V14.01,2013-08-17 14:26:00,
2013-08-17 10:31:00,66.6,58.4,31.87,NE,43,0.0,0.0,75,0.00,,,0.00,VWS V14.01,2013-08-17 14:31:00,
2013-08-17 10:36:00,66.9,57.6,31.87,East,101,0.0,0.0,72,0.00,,,0.00,VWS V14.01,2013-08-17 14:36:00,
2013-08-17 10:42:00,66.9,57.2,31.87,NE,51,0.0,0.0,71,0.00,,,0.00,VWS V14.01,2013-08-17 14:42:00,
2013-08-17 10:48:00,67.1,57.0,31.87,ESE,112,0.0,0.0,70,0.00,,,0.00,VWS V14.01,2013-08-17 14:48:00,
2013-08-17 10:53:00,67.1,57.0,31.87,ESE,112,0.0,0.0,70,0.00,,,0.00,VWS V14.01,2013-08-17 14:53:00,
2013-08-17 10:58:00,67.6,56.7,31.87,NNE,33,0.0,0.0,68,0.00,,,0.00,VWS V14.01,2013-08-17 14:58:00,
2013-08-17 11:04:00,68.2,56.8,31.87,NE,36,4.0,8.9,67,0.00,,,0.00,VWS V14.01,2013-08-17 15:04:00,
2013-08-17 11:09:00,68.5,56.3,31.87,NE,51,0.0,0.0,65,0.00,,,0.00,VWS V14.01,2013-08-17 15:09:00,
2013-08-17 11:15:00,68.9,56.2,31.87,East,101,0.0,0.0,64,0.00,,,0.00,VWS V14.01,2013-08-17 15:15:00,
2013-08-17 11:21:00,69.3,56.1,31.87,East,91,0.0,0.0,63,0.00,,,0.00,VWS V14.01,2013-08-17 15:21:00,
2013-08-17 11:27:00,69.8,56.7,31.87,NNE,32,4.7,7.8,63,0.00,,,0.00,VWS V14.01,2013-08-17 15:27:00,
2013-08-17 11:33:00,71.2,57.6,31.87,ESE,114,0.0,8.9,62,0.00,,,0.00,VWS V14.01,2013-08-17 15:33:00,
2013-08-17 11:38:00,72.0,57.3,31.87,ESE,114,3.4,6.7,60,0.00,,,0.00,VWS V14.01,2013-08-17 15:38:00,
2013-08-17 11:43:00,73.0,58.3,31.87,East,96,5.4,8.9,60,0.00,,,0.00,VWS V14.01,2013-08-17 15:43:00,
2013-08-17 11:48:00,73.8,57.6,31.87,ESE,118,0.0,0.0,57,0.00,,,0.00,VWS V14.01,2013-08-17 15:48:00,
2013-08-17 11:54:00,74.3,56.6,31.87,ESE,113,4.0,8.9,54,0.00,,,0.00,VWS V14.01,2013-08-17 15:54:00,
2013-08-17 11:59:00,75.0,56.8,31.87,SE,126,3.4,8.9,53,0.00,,,0.00,VWS V14.01,2013-08-17 15:59:00,
2013-08-17 12:04:00,75.9,57.0,31.87,East,97,0.0,0.0,52,0.00,,,0.00,VWS V14.01,2013-08-17 16:04:00,
2013-08-17 12:11:00,76.8,56.2,31.87,ESE,106,4.0,7.8,49,0.00,,,0.00,VWS V14.01,2013-08-17 16:11:00,
2013-08-17 12:17:00,77.7,56.5,31.87,ESE,102,3.4,7.8,48,0.00,,,0.00,VWS V14.01,2013-08-17 16:17:00,
2013-08-17 12:22:00,77.9,54.9,31.87,NE,46,4.7,7.8,45,0.00,,,0.00,VWS V14.01,2013-08-17 16:22:00,
2013-08-17 12:28:00,77.5,51.3,31.87,NE,35,5.4,8.9,40,0.00,,,0.00,VWS V14.01,2013-08-17 16:28:00,
2013-08-17 12:33:00,77.5,50.0,31.87,NE,44,0.0,0.0,38,0.00,,,0.00,VWS V14.01,2013-08-17 16:33:00,
2013-08-17 12:39:00,78.1,49.7,31.87,ENE,59,5.4,10.1,37,0.00,,,0.00,VWS V14.01,2013-08-17 16:39:00,
2013-08-17 12:44:00,78.3,49.9,31.87,ENE,57,4.0,6.7,37,0.00,,,0.00,VWS V14.01,2013-08-17 16:44:00,
2013-08-17 12:51:00,79.0,51.2,31.87,ESE,120,4.0,8.9,38,0.00,,,0.00,VWS V14.01,2013-08-17 16:51:00,
2013-08-17 12:57:00,79.7,50.4,31.87,NE,53,5.4,8.9,36,0.00,,,0.00,VWS V14.01,2013-08-17 16:57:00,
2013-08-17 13:02:00,80.1,52.2,31.87,NE,55,0.0,0.0,38,0.00,,,0.00,VWS V14.01,2013-08-17 17:02:00,
2013-08-17 13:07:00,80.6,53.4,31.87,ESE,121,0.0,7.8,39,0.00,,,0.00,VWS V14.01,2013-08-17 17:07:00,
2013-08-17 13:13:00,80.8,53.5,31.87,ESE,113,6.0,10.1,39,0.00,,,0.00,VWS V14.01,2013-08-17 17:13:00,
2013-08-17 13:18:00,80.4,51.0,31.87,NE,48,4.0,6.7,36,0.00,,,0.00,VWS V14.01,2013-08-17 17:18:00,
2013-08-17 13:24:00,80.6,49.7,31.87,NE,43,6.0,13.4,34,0.00,,,0.00,VWS V14.01,2013-08-17 17:24:00,
2013-08-17 13:30:00,81.0,50.8,31.87,NE,35,0.0,0.0,35,0.00,,,0.00,VWS V14.01,2013-08-17 17:30:00,
2013-08-17 13:36:00,81.7,52.2,31.87,SE,141,0.0,0.0,36,0.00,,,0.00,VWS V14.01,2013-08-17 17:36:00,
2013-08-17 13:42:00,81.5,49.7,31.87,NE,37,7.4,12.3,33,0.00,,,0.00,VWS V14.01,2013-08-17 17:42:00,
2013-08-17 13:47:00,81.5,50.5,31.87,ESE,103,0.0,7.8,34,0.00,,,0.00,VWS V14.01,2013-08-17 17:47:00,
2013-08-17 13:53:00,82.6,51.4,31.87,ESE,116,4.7,11.2,34,0.00,,,0.00,VWS V14.01,2013-08-17 17:53:00,
2013-08-17 13:58:00,82.9,50.9,31.87,ENE,66,3.4,5.6,33,0.00,,,0.00,VWS V14.01,2013-08-17 17:58:00,
2013-08-17 14:04:00,81.9,49.1,31.87,ENE,64,4.0,7.8,32,0.00,,,0.00,VWS V14.01,2013-08-17 18:04:00,
2013-08-17 14:09:00,82.6,50.6,31.87,ENE,74,0.0,6.7,33,0.00,,,0.00,VWS V14.01,2013-08-17 18:09:00,
2013-08-17 14:14:00,82.2,48.6,31.87,NE,40,4.0,6.7,31,0.00,,,0.00,VWS V14.01,2013-08-17 18:14:00,
2013-08-17 14:19:00,82.8,48.2,31.87,NNE,29,4.7,8.9,30,0.00,,,0.00,VWS V14.01,2013-08-17 18:19:00,
2013-08-17 14:24:00,82.9,49.2,31.87,East,92,0.0,0.0,31,0.00,,,0.00,VWS V14.01,2013-08-17 18:24:00,
2013-08-17 14:31:00,84.2,52.0,31.87,SE,136,4.0,7.8,33,0.00,,,0.00,VWS V14.01,2013-08-17 18:31:00,
2013-08-17 14:36:00,84.2,50.3,31.87,ESE,102,3.4,8.9,31,0.00,,,0.00,VWS V14.01,2013-08-17 18:36:00,
2013-08-17 14:42:00,83.7,50.7,31.87,NE,36,3.4,5.6,32,0.00,,,0.00,VWS V14.01,2013-08-17 18:42:00,
2013-08-17 14:47:00,82.9,48.3,31.87,NE,41,3.4,5.6,30,0.00,,,0.00,VWS V14.01,2013-08-17 18:47:00,
2013-08-17 14:52:00,84.6,51.5,31.87,ESE,108,0.0,6.7,32,0.00,,,0.00,VWS V14.01,2013-08-17 18:52:00,
2013-08-17 14:57:00,83.8,49.1,31.87,ENE,67,3.4,12.3,30,0.00,,,0.00,VWS V14.01,2013-08-17 18:57:00,
2013-08-17 15:02:00,83.7,49.0,31.87,East,89,0.0,5.6,30,0.00,,,0.00,VWS V14.01,2013-08-17 19:02:00,
2013-08-17 15:08:00,84.2,49.4,31.87,NE,52,4.0,7.8,30,0.00,,,0.00,VWS V14.01,2013-08-17 19:08:00,
2013-08-17 15:13:00,84.2,49.4,31.87,NNE,27,5.4,8.9,30,0.00,,,0.00,VWS V14.01,2013-08-17 19:13:00,
2013-08-17 15:19:00,84.2,49.4,31.87,ESE,105,0.0,0.0,30,0.00,,,0.00,VWS V14.01,2013-08-17 19:19:00,
2013-08-17 15:24:00,84.2,49.4,31.87,East,94,4.7,8.9,30,0.00,,,0.00,VWS V14.01,2013-08-17 19:24:00,
2013-08-17 15:29:00,84.2,49.4,31.87,NE,39,0.0,5.6,30,0.00,,,0.00,VWS V14.01,2013-08-17 19:29:00,
2013-08-17 15:34:00,84.2,49.4,31.87,ENE,67,7.4,12.3,30,0.00,,,0.00,VWS V14.01,2013-08-17 19:34:00,
2013-08-17 15:39:00,84.2,49.4,31.87,ESE,119,4.0,6.7,30,0.00,,,0.00,VWS V14.01,2013-08-17 19:39:00,
2013-08-17 15:44:00,84.2,49.4,31.87,ESE,102,4.0,10.1,30,0.00,,,0.00,VWS V14.01,2013-08-17 19:44:00,
2013-08-17 15:49:00,84.2,49.4,31.87,SE,124,4.7,10.1,30,0.00,,,0.00,VWS V14.01,2013-08-17 19:49:00,
2013-08-17 15:55:00,84.2,49.4,31.87,ESE,121,0.0,6.7,30,0.00,,,0.00,VWS V14.01,2013-08-17 19:55:00,
2013-08-17 16:01:00,84.2,49.4,31.87,ENE,62,0.0,6.7,30,0.00,,,0.00,VWS V14.01,2013-08-17 20:01:00,
2013-08-17 16:06:00,84.2,49.4,31.87,SE,126,3.4,7.8,30,0.00,,,0.00,VWS V14.01,2013-08-17 20:06:00,
2013-08-17 16:11:00,84.2,49.4,31.87,East,84,0.0,0.0,30,0.00,,,0.00,VWS V14.01,2013-08-17 20:11:00,
2013-08-17 16:17:00,81.3,48.7,31.87,East,98,0.0,0.0,32,0.00,,,0.00,VWS V14.01,2013-08-17 20:17:00,
2013-08-17 16:22:00,81.5,50.5,31.87,ESE,115,0.0,0.0,34,0.00,,,0.00,VWS V14.01,2013-08-17 20:22:00,
2013-08-17 16:27:00,83.7,51.5,31.87,NE,38,0.0,0.0,33,0.00,,,0.00,VWS V14.01,2013-08-17 20:27:00,
2013-08-17 16:32:00,84.4,51.3,31.87,ESE,103,0.0,6.7,32,0.00,,,0.00,VWS V14.01,2013-08-17 20:32:00,
2013-08-17 16:37:00,84.4,50.5,31.87,ENE,73,4.0,6.7,31,0.00,,,0.00,VWS V14.01,2013-08-17 20:37:00,
2013-08-17 16:42:00,84.4,50.5,31.87,East,97,4.0,6.7,31,0.00,,,0.00,VWS V14.01,2013-08-17 20:42:00,
2013-08-17 16:47:00,84.9,51.8,31.87,ESE,113,4.7,10.1,32,0.00,,,0.00,VWS V14.01,2013-08-17 20:47:00,
2013-08-17 16:52:00,85.1,52.0,31.87,ESE,113,0.0,0.0,32,0.00,,,0.00,VWS V14.01,2013-08-17 20:52:00,
2013-08-17 16:57:00,84.7,51.6,31.87,ESE,104,0.0,6.7,32,0.00,,,0.00,VWS V14.01,2013-08-17 20:57:00,
2013-08-17 17:02:00,85.1,52.0,31.87,ESE,111,4.0,6.7,32,0.00,,,0.00,VWS V14.01,2013-08-17 21:02:00,
2013-08-17 17:07:00,84.9,51.8,31.87,ESE,111,3.4,5.6,32,0.00,,,0.00,VWS V14.01,2013-08-17 21:07:00,
2013-08-17 17:13:00,84.2,50.3,31.87,ESE,115,0.0,7.8,31,0.00,,,0.00,VWS V14.01,2013-08-17 21:13:00,
2013-08-17 17:18:00,84.7,51.6,31.87,East,100,0.0,0.0,32,0.00,,,0.00,VWS V14.01,2013-08-17 21:18:00,
2013-08-17 17:23:00,84.9,51.8,31.87,ENE,66,0.0,0.0,32,0.00,,,0.00,VWS V14.01,2013-08-17 21:23:00,
2013-08-17 17:28:00,85.3,51.2,31.87,SSW,205,0.0,0.0,31,0.00,,,0.00,VWS V14.01,2013-08-17 21:28:00,
2013-08-17 17:33:00,86.0,51.9,31.87,SSW,205,0.0,0.0,31,0.00,,,0.00,VWS V14.01,2013-08-17 21:33:00,
2013-08-17 17:39:00,86.0,51.9,31.87,ESE,104,0.0,0.0,31,0.00,,,0.00,VWS V14.01,2013-08-17 21:39:00,
2013-08-17 17:44:00,82.8,48.2,31.87,NE,44,4.0,6.7,30,0.00,,,0.00,VWS V14.01,2013-08-17 21:44:00,
2013-08-17 17:49:00,81.0,47.5,31.87,NE,41,0.0,0.0,31,0.00,,,0.00,VWS V14.01,2013-08-17 21:49:00,
2013-08-17 17:54:00,79.5,47.9,31.87,NE,41,0.0,0.0,33,0.00,,,0.00,VWS V14.01,2013-08-17 21:54:00,
2013-08-17 18:01:00,81.5,51.2,31.87,NE,53,0.0,5.6,35,0.00,,,0.00,VWS V14.01,2013-08-17 22:01:00,
2013-08-17 18:07:00,82.8,52.3,31.87,NNE,20,0.0,0.0,35,0.00,,,0.00,VWS V14.01,2013-08-17 22:07:00,
2013-08-17 18:12:00,83.1,52.7,31.87,ENE,57,0.0,0.0,35,0.00,,,0.00,VWS V14.01,2013-08-17 22:12:00,
2013-08-17 18:17:00,83.1,51.9,31.87,ESE,112,0.0,6.7,34,0.00,,,0.00,VWS V14.01,2013-08-17 22:17:00,
2013-08-17 18:22:00,83.7,51.5,31.87,ESE,119,0.0,5.6,33,0.00,,,0.00,VWS V14.01,2013-08-17 22:22:00,
2013-08-17 18:27:00,83.7,51.5,31.87,East,86,0.0,0.0,33,0.00,,,0.00,VWS V14.01,2013-08-17 22:27:00,
2013-08-17 18:32:00,82.9,50.1,31.87,ENE,73,0.0,6.7,32,0.00,,,0.00,VWS V14.01,2013-08-17 22:32:00,
2013-08-17 18:37:00,82.6,49.8,31.87,ESE,105,0.0,0.0,32,0.00,,,0.00,VWS V14.01,2013-08-17 22:37:00,
2013-08-17 18:43:00,81.7,49.8,31.87,ESE,105,0.0,0.0,33,0.00,,,0.00,VWS V14.01,2013-08-17 22:43:00,
2013-08-17 18:48:00,81.0,48.4,31.87,ESE,104,0.0,5.6,32,0.00,,,0.00,VWS V14.01,2013-08-17 22:48:00,
2013-08-17 18:53:00,81.0,49.2,31.87,ESE,104,0.0,0.0,33,0.00,,,0.00,VWS V14.01,2013-08-17 22:53:00,
2013-08-17 18:58:00,80.6,48.9,31.87,ESE,104,0.0,0.0,33,0.00,,,0.00,VWS V14.01,2013-08-17 22:58:00,
2013-08-17 19:03:00,80.6,48.9,31.87,ESE,104,0.0,0.0,33,0.00,,,0.00,VWS V14.01,2013-08-17 23:03:00,
2013-08-17 19:08:00,79.9,49.0,31.87,ESE,104,0.0,0.0,34,0.00,,,0.00,VWS V14.01,2013-08-17 23:08:00,
2013-08-17 19:14:00,78.6,47.9,31.87,NE,54,0.0,0.0,34,0.00,,,0.00,VWS V14.01,2013-08-17 23:14:00,
2013-08-17 19:19:00,78.1,48.2,31.87,ENE,58,0.0,0.0,35,0.00,,,0.00,VWS V14.01,2013-08-17 23:19:00,
2013-08-17 19:24:00,77.9,48.1,31.87,East,99,0.0,0.0,35,0.00,,,0.00,VWS V14.01,2013-08-17 23:24:00,
2013-08-17 19:29:00,77.9,48.1,31.87,East,99,0.0,0.0,35,0.00,,,0.00,VWS V14.01,2013-08-17 23:29:00,
2013-08-17 19:34:00,76.6,47.7,31.87,East,99,0.0,0.0,36,0.00,,,0.00,VWS V14.01,2013-08-17 23:34:00,
2013-08-17 19:39:00,76.6,47.7,31.87,East,99,0.0,0.0,36,0.00,,,0.00,VWS V14.01,2013-08-17 23:39:00,
2013-08-17 19:44:00,75.7,47.7,31.87,East,98,0.0,0.0,37,0.00,,,0.00,VWS V14.01,2013-08-17 23:44:00,
2013-08-17 19:49:00,75.7,47.7,31.87,East,99,0.0,0.0,37,0.00,,,0.00,VWS V14.01,2013-08-17 23:49:00,
2013-08-17 19:54:00,75.7,47.7,31.87,East,99,0.0,0.0,37,0.00,,,0.00,VWS V14.01,2013-08-17 23:54:00,
2013-08-17 19:59:00,75.7,47.7,31.87,East,99,0.0,0.0,37,0.00,,,0.00,VWS V14.01,2013-08-17 23:59:00,
2013-08-17 20:04:00,75.7,47.7,31.87,East,99,0.0,0.0,37,0.00,,,0.00,VWS V14.01,2013-08-18 00:04:00,
2013-08-17 20:09:00,73.6,48.5,31.87,East,98,0.0,0.0,41,0.00,,,0.00,VWS V14.01,2013-08-18 00:09:00,
2013-08-17 20:14:00,73.6,48.5,31.87,East,99,0.0,0.0,41,0.00,,,0.00,VWS V14.01,2013-08-18 00:14:00,
2013-08-17 20:19:00,73.6,48.5,31.87,East,99,0.0,0.0,41,0.00,,,0.00,VWS V14.01,2013-08-18 00:19:00,
2013-08-17 20:24:00,73.6,48.5,31.87,East,98,0.0,0.0,41,0.00,,,0.00,VWS V14.01,2013-08-18 00:24:00,
2013-08-17 20:29:00,73.6,48.5,31.87,East,99,0.0,0.0,41,0.00,,,0.00,VWS V14.01,2013-08-18 00:29:00,
2013-08-17 20:34:00,73.6,48.5,31.87,East,99,0.0,0.0,41,0.00,,,0.00,VWS V14.01,2013-08-18 00:34:00,
2013-08-17 20:39:00,73.6,48.5,31.87,East,98,0.0,0.0,41,0.00,,,0.00,VWS V14.01,2013-08-18 00:39:00,
2013-08-17 20:44:00,73.6,48.5,31.87,East,99,0.0,0.0,41,0.00,,,0.00,VWS V14.01,2013-08-18 00:44:00,
2013-08-17 20:49:00,73.6,48.5,31.87,East,99,0.0,0.0,41,0.00,,,0.00,VWS V14.01,2013-08-18 00:49:00,
2013-08-17 20:54:00,73.6,48.5,31.87,East,99,0.0,0.0,41,0.00,,,0.00,VWS V14.01,2013-08-18 00:54:00,
2013-08-17 20:59:00,73.6,48.5,31.87,East,99,0.0,0.0,41,0.00,,,0.00,VWS V14.01,2013-08-18 00:59:00,
2013-08-17 21:04:00,73.6,48.5,31.87,East,99,0.0,0.0,41,0.00,,,0.00,VWS V14.01,2013-08-18 01:04:00,
2013-08-17 21:09:00,73.6,48.5,31.87,East,99,0.0,0.0,41,0.00,,,0.00,VWS V14.01,2013-08-18 01:09:00,
2013-08-17 21:14:00,73.6,48.5,31.87,East,99,0.0,0.0,41,0.00,,,0.00,VWS V14.01,2013-08-18 01:14:00,
2013-08-17 21:19:00,73.6,48.5,31.87,East,98,0.0,0.0,41,0.00,,,0.00,VWS V14.01,2013-08-18 01:19:00,
2013-08-17 21:24:00,73.6,48.5,31.87,East,99,0.0,0.0,41,0.00,,,0.00,VWS V14.01,2013-08-18 01:24:00,
2013-08-17 21:29:00,66.6,49.4,31.87,East,99,0.0,0.0,54,0.00,,,0.00,VWS V14.01,2013-08-18 01:29:00,
2013-08-17 21:36:00,66.0,49.9,31.87,East,99,0.0,0.0,56,0.00,,,0.00,VWS V14.01,2013-08-18 01:36:00,
2013-08-17 21:41:00,65.8,50.2,31.87,East,99,0.0,0.0,57,0.00,,,0.00,VWS V14.01,2013-08-18 01:41:00,
2013-08-17 21:46:00,65.8,50.2,31.87,East,99,0.0,0.0,57,0.00,,,0.00,VWS V14.01,2013-08-18 01:46:00,
2013-08-17 21:52:00,65.8,50.2,31.87,East,99,0.0,0.0,57,0.00,,,0.00,VWS V14.01,2013-08-18 01:52:00,
2013-08-17 21:57:00,65.1,50.9,31.87,East,99,0.0,0.0,60,0.00,,,0.00,VWS V14.01,2013-08-18 01:57:00,
2013-08-17 22:02:00,65.1,50.9,31.87,East,99,0.0,0.0,60,0.00,,,0.00,VWS V14.01,2013-08-18 02:02:00,
2013-08-17 22:07:00,64.8,51.0,31.87,East,99,0.0,0.0,61,0.00,,,0.00,VWS V14.01,2013-08-18 02:07:00,
2013-08-17 22:12:00,64.8,51.0,31.87,East,99,0.0,0.0,61,0.00,,,0.00,VWS V14.01,2013-08-18 02:12:00,
2013-08-17 22:17:00,64.4,51.5,31.87,East,99,0.0,0.0,63,0.00,,,0.00,VWS V14.01,2013-08-18 02:17:00,
2013-08-17 22:22:00,64.2,51.8,31.87,East,99,0.0,0.0,64,0.00,,,0.00,VWS V14.01,2013-08-18 02:22:00,
2013-08-17 22:28:00,64.0,51.6,31.87,East,99,0.0,0.0,64,0.00,,,0.00,VWS V14.01,2013-08-18 02:28:00,
2013-08-17 22:33:00,64.0,51.6,31.87,East,99,0.0,0.0,64,0.00,,,0.00,VWS V14.01,2013-08-18 02:33:00,
2013-08-17 22:38:00,63.3,51.4,31.87,East,99,0.0,0.0,65,0.00,,,0.00,VWS V14.01,2013-08-18 02:38:00,
2013-08-17 22:43:00,63.1,51.6,31.87,East,99,0.0,0.0,66,0.00,,,0.00,VWS V14.01,2013-08-18 02:43:00,
2013-08-17 22:48:00,63.0,51.4,31.87,East,99,0.0,0.0,66,0.00,,,0.00,VWS V14.01,2013-08-18 02:48:00,
2013-08-17 22:53:00,62.8,51.3,31.87,East,98,0.0,0.0,66,0.00,,,0.00,VWS V14.01,2013-08-18 02:53:00,
2013-08-17 22:58:00,62.6,51.5,31.87,East,99,0.0,0.0,67,0.00,,,0.00,VWS V14.01,2013-08-18 02:58:00,
2013-08-17 23:03:00,62.6,51.5,31.87,East,99,0.0,0.0,67,0.00,,,0.00,VWS V14.01,2013-08-18 03:03:00,
2013-08-17 23:09:00,62.2,51.2,31.87,East,99,0.0,0.0,67,0.00,,,0.00,VWS V14.01,2013-08-18 03:09:00,
2013-08-17 23:14:00,62.2,51.2,31.87,East,99,0.0,0.0,67,0.00,,,0.00,VWS V14.01,2013-08-18 03:14:00,
2013-08-17 23:19:00,62.2,51.2,31.87,East,98,0.0,0.0,67,0.00,,,0.00,VWS V14.01,2013-08-18 03:19:00,
2013-08-17 23:24:00,62.2,51.2,31.87,East,99,0.0,0.0,67,0.00,,,0.00,VWS V14.01,2013-08-18 03:24:00,
2013-08-17 23:31:00,62.2,51.2,31.87,East,99,0.0,0.0,67,0.00,,,0.00,VWS V14.01,2013-08-18 03:31:00,
2013-08-17 23:37:00,62.2,51.2,31.87,East,99,0.0,0.0,67,0.00,,,0.00,VWS V14.01,2013-08-18 03:37:00,
2013-08-17 23:42:00,62.2,51.2,31.87,East,99,0.0,0.0,67,0.00,,,0.00,VWS V14.01,2013-08-18 03:42:00,
2013-08-17 23:47:00,62.2,51.2,31.87,East,98,0.0,0.0,67,0.00,,,0.00,VWS V14.01,2013-08-18 03:47:00,
2013-08-17 23:52:00,62.2,51.2,31.87,East,98,0.0,0.0,67,0.00,,,0.00,VWS V14.01,2013-08-18 03:52:00,
2013-08-17 23:57:00,62.2,51.2,31.87,East,99,0.0,0.0,67,0.00,,,0.00,VWS V14.01,2013-08-18 03:57:00,